Satellite-Ground Cal/Val Region Overpasses Predictions

Prediction of Satellite NPP Overpassing Cal/Val Region: PacNW

Region Location: (Latitude: 10.00, Longitude: 139.50) to (Latitude: 22.70, Longitude: 165.60).

Table of predicted overpasses for the next 14.0 days since TLE Epoch: 12/2/2016
Interval Starting Time Starting Location Ending Time Ending Location
1 12/03/2016 03:05:20 ( 10.03, 153.43) 12/03/2016 03:08:55 ( 22.65, 150.43)
2 12/03/2016 15:37:13 ( 22.69, 150.66) 12/03/2016 15:40:49 ( 10.01, 147.65)
3 12/04/2016 02:46:17 ( 10.00, 158.19) 12/04/2016 02:49:53 ( 22.68, 155.18)
4 12/04/2016 15:18:11 ( 22.66, 155.41) 12/04/2016 15:21:46 ( 10.04, 152.41)
5 12/05/2016 02:27:16 ( 10.03, 162.94) 12/05/2016 02:30:51 ( 22.66, 159.94)
6 12/05/2016 14:59:09 ( 22.69, 160.17) 12/05/2016 15:02:45 ( 10.01, 157.16)
7 12/06/2016 02:10:47 ( 19.05, 165.59) 12/06/2016 02:11:49 ( 22.69, 164.69)
8 12/06/2016 03:49:43 ( 10.01, 142.33) 12/06/2016 03:53:06 ( 21.93, 139.51)
9 12/06/2016 14:40:07 ( 22.65, 164.92) 12/06/2016 14:43:42 ( 10.03, 161.92)
10 12/06/2016 16:21:37 ( 22.65, 139.54) 12/06/2016 16:21:40 ( 22.47, 139.50)
11 12/07/2016 03:30:42 ( 10.05, 147.08) 12/07/2016 03:34:17 ( 22.67, 144.08)
12 12/07/2016 16:02:35 ( 22.67, 144.31) 12/07/2016 16:06:10 ( 10.05, 141.31)
13 12/08/2016 03:11:39 ( 10.02, 151.84) 12/08/2016 03:15:14 ( 22.65, 148.84)
14 12/08/2016 15:43:32 ( 22.70, 149.07) 12/08/2016 15:47:08 ( 10.02, 146.06)
15 12/09/2016 02:52:37 ( 10.00, 156.60) 12/09/2016 02:56:13 ( 22.68, 153.59)
16 12/09/2016 15:24:31 ( 22.66, 153.82) 12/09/2016 15:28:06 ( 10.04, 150.82)
17 12/10/2016 02:33:36 ( 10.04, 161.35) 12/10/2016 02:37:11 ( 22.66, 158.35)
18 12/10/2016 15:05:28 ( 22.69, 158.58) 12/10/2016 15:09:04 ( 10.01, 155.57)
19 12/11/2016 02:15:12 ( 12.30, 165.59) 12/11/2016 02:18:09 ( 22.69, 163.10)
20 12/11/2016 03:56:03 ( 10.02, 140.74) 12/11/2016 03:57:34 ( 15.37, 139.50)
21 12/11/2016 14:46:27 ( 22.65, 163.33) 12/11/2016 14:50:02 ( 10.03, 160.33)
22 12/12/2016 03:37:02 ( 10.06, 145.49) 12/12/2016 03:40:37 ( 22.68, 142.49)
23
